| time (UTC) | temp F | wind direction | speed MPH | gust MPH | rain 1hr in | rain 24hr in | rain mn in | humidity % | barometer mb |
| 20260502223041 | 67 | 0 | 0.0 | 1.0 | 0.00 | 0.00 | 0.00 | 34 | 1019.1 |
| 20260502221535 | 66 | 234 | 1.0 | 3.0 | 0.00 | 0.00 | 0.00 | 39 | 1019.2 |
| 20260502220037 | 66 | 0 | 0.0 | 2.0 | 0.00 | 0.00 | 0.00 | 36 | 1019.3 |
| 20260502214543 | 66 | 0 | 0.0 | 2.0 | 0.00 | 0.00 | 0.00 | 38 | 1019.4 |
| 20260502213058 | 65 | 120 | 1.0 | 5.0 | 0.00 | 0.00 | 0.00 | 38 | 1019.4 |
| 20260502211538 | 66 | 304 | 0.0 | 2.0 | 0.00 | 0.00 | 0.00 | 40 | 1019.6 |
| 20260502210037 | 65 | 239 | 1.0 | 3.0 | 0.00 | 0.00 | 0.00 | 37 | 1019.8 |
| 20260502204537 | 63 | 150 | 2.0 | 5.0 | 0.00 | 0.00 | 0.00 | 37 | 1019.8 |
| 20260502203042 | 63 | 7 | 2.0 | 6.0 | 0.00 | 0.00 | 0.00 | 36 | 1020.0 |
| 20260502201540 | 65 | 20 | 2.0 | 6.0 | 0.00 | 0.00 | 0.00 | 37 | 1020.1 |
| 20260502200055 | 65 | 0 | 0.0 | 3.0 | 0.00 | 0.00 | 0.00 | 38 | 1020.4 |
| 20260502194543 | 64 | 328 | 0.0 | 3.0 | 0.00 | 0.00 | 0.00 | 48 | 1020.4 |
| 20260502193042 | 65 | 0 | 0.0 | 4.0 | 0.00 | 0.00 | 0.00 | 43 | 1020.5 |
| 20260502191543 | 64 | 0 | 1.0 | 3.0 | 0.00 | 0.00 | 0.00 | 37 | 1020.6 |
| 20260502190043 | 62 | 118 | 2.0 | 8.0 | 0.00 | 0.00 | 0.00 | 44 | 1020.7 |
| 20260502184535 | 63 | 0 | 0.0 | 6.0 | 0.00 | 0.00 | 0.00 | 44 | 1020.9 |
| 20260502183044 | 63 | 0 | 3.0 | 7.0 | 0.00 | 0.00 | 0.00 | 43 | 1021.1 |
| 20260502181544 | 63 | 314 | 0.0 | 7.0 | 0.00 | 0.00 | 0.00 | 45 | 1021.3 |
| 20260502163036 | 60 | 0 | 0.0 | 6.0 | 0.00 | 0.00 | 0.00 | 48 | 1021.9 |
| 20260502161537 | 59 | 0 | 1.0 | 4.0 | 0.00 | 0.00 | 0.00 | 45 | 1021.9 |
| 20260502151535 | 56 | 40 | 2.0 | 5.0 | 0.00 | 0.00 | 0.00 | 55 | 1021.9 |
| 20260502123034 | 38 | 0 | 0.0 | 0.0 | 0.00 | 0.00 | 0.00 | 85 | 1021.0 |
| 20260502121543 | 37 | 0 | 0.0 | 0.0 | 0.00 | 0.00 | 0.00 | 86 | 1020.9 |
| 20260502114539 | 36 | 0 | 0.0 | 0.0 | 0.00 | 0.00 | 0.00 | 82 | 1020.5 |
| 20260502113046 | 37 | 0 | 0.0 | 0.0 | 0.00 | 0.00 | 0.00 | 82 | 1020.4 |
| 20260502111546 | 35 | 0 | 0.0 | 0.0 | 0.00 | 0.00 | 0.00 | 86 | 1020.2 |
| 20260502110036 | 35 | 0 | 0.0 | 0.0 | 0.00 | 0.00 | 0.00 | 84 | 1020.2 |
| 20260502104542 | 36 | 0 | 0.0 | 0.0 | 0.00 | 0.00 | 0.00 | 82 | 1020.3 |
| 20260502103101 | 37 | 0 | 0.0 | 0.0 | 0.00 | 0.00 | 0.00 | 81 | 1020.2 |
| 20260502101548 | 38 | 0 | 0.0 | 0.0 | 0.00 | 0.00 | 0.00 | 79 | 1020.0 |
| 20260502070035 | 43 | 0 | 0.0 | 0.0 | 0.00 | 0.00 | 0.00 | 69 | 1019.4 |
| 20260502064544 | 43 | 0 | 0.0 | 0.0 | 0.00 | 0.00 | 0.00 | 70 | 1019.5 |
| 20260502063050 | 44 | 0 | 0.0 | 0.0 | 0.00 | 0.00 | 0.00 | 66 | 1019.5 |
| 20260502061542 | 46 | 0 | 0.0 | 0.0 | 0.00 | 0.00 | 0.00 | 65 | 1019.5 |
| 20260502060038 | 47 | 0 | 0.0 | 0.0 | 0.00 | 0.00 | 0.00 | 64 | 1019.5 |
| 20260502054549 | 48 | 0 | 0.0 | 1.0 | 0.00 | 0.00 | 0.00 | 62 | 1019.5 |
| 20260502053040 | 49 | 0 | 0.0 | 2.0 | 0.00 | 0.00 | 0.00 | 61 | 1019.5 |
| 20260502051542 | 49 | 313 | 0.0 | 2.0 | 0.00 | 0.00 | 0.00 | 62 | 1019.5 |
| 20260502050042 | 49 | 314 | 0.0 | 1.0 | 0.00 | 0.00 | 0.00 | 63 | 1019.4 |
| 20260502044536 | 50 | 25 | 0.0 | 3.0 | 0.00 | 0.00 | 0.00 | 61 | 1019.3 |
| 20260502043035 | 49 | 314 | 0.0 | 2.0 | 0.00 | 0.00 | 0.00 | 65 | 1019.3 |
| 20260502041538 | 49 | 333 | 0.0 | 1.0 | 0.00 | 0.00 | 0.00 | 66 | 1019.2 |
| 20260502040035 | 48 | 0 | 0.0 | 1.0 | 0.00 | 0.00 | 0.00 | 69 | 1019.1 |
| 20260502034539 | 48 | 0 | 0.0 | 0.0 | 0.00 | 0.00 | 0.00 | 68 | 1019.1 |
| 20260502033043 | 49 | 0 | 0.0 | 0.0 | 0.00 | 0.00 | 0.00 | 65 | 1018.9 |
| 20260502031535 | 50 | 0 | 0.0 | 1.0 | 0.00 | 0.00 | 0.00 | 65 | 1018.8 |
| 20260502030042 | 50 | 0 | 0.0 | 0.0 | 0.00 | 0.00 | 0.00 | 64 | 1018.6 |
| 20260502024544 | 51 | 0 | 0.0 | 0.0 | 0.00 | 0.00 | 0.00 | 61 | 1018.3 |
| 20260502023040 | 53 | 0 | 0.0 | 1.0 | 0.00 | 0.00 | 0.00 | 57 | 1018.1 |
| 20260502021536 | 54 | 328 | 0.0 | 1.0 | 0.00 | 0.00 | 0.00 | 56 | 1017.9 |
| 20260502020035 | 54 | 11 | 0.0 | 1.0 | 0.00 | 0.00 | 0.00 | 56 | 1017.6 |
| 20260502014536 | 55 | 0 | 0.0 | 1.0 | 0.00 | 0.00 | 0.00 | 56 | 1017.3 |
| 20260502013034 | 56 | 0 | 0.0 | 1.0 | 0.00 | 0.00 | 0.00 | 54 | 1017.1 |
| 20260502011542 | 57 | 300 | 0.0 | 1.0 | 0.00 | 0.00 | 0.00 | 51 | 1017.0 |
| 20260502010047 | 58 | 0 | 0.0 | 3.0 | 0.00 | 0.00 | 0.00 | 48 | 1016.6 |
| 20260502004535 | 59 | 309 | 1.0 | 3.0 | 0.00 | 0.00 | 0.00 | 48 | 1016.4 |
| 20260502003034 | 60 | 0 | 1.0 | 2.0 | 0.00 | 0.00 | 0.00 | 46 | 1016.2 |
| 20260502001543 | 61 | 319 | 1.0 | 4.0 | 0.00 | 0.00 | 0.00 | 46 | 1016.0 |
| 20260502000041 | 61 | 304 | 0.0 | 3.0 | 0.00 | 0.00 | 0.00 | 44 | 1016.0 |
| 20260501234541 | 62 | 296 | 2.0 | 4.0 | 0.00 | 0.00 | 0.00 | 41 | 1015.9 |
| 20260501233051 | 64 | 294 | 1.0 | 4.0 | 0.00 | 0.00 | 0.00 | 40 | 1015.9 |
| 20260501231535 | 65 | 316 | 0.0 | 4.0 | 0.00 | 0.00 | 0.00 | 42 | 1015.9 |
| 20260501230043 | 67 | 332 | 1.0 | 3.0 | 0.00 | 0.00 | 0.00 | 41 | 1015.9 |
| 20260501224535 | 67 | 51 | 0.0 | 9.0 | 0.00 | 0.01 | 0.00 | 39 | 1015.9 |